Weather History for CWBZ - August, 2013

Change the Weather History Date:

Sunday, August 18, 2013

  Actual Average Record
Temperature  
Mean Temperature 64 °F -  
Max Temperature 81 °F - - ()
Min Temperature 48 °F - - ()
Growing Degree Days 14 (Base 50)    
Moisture  
Dew Point 56 °F    
Average Humidity 76    
Maximum Humidity 100    
Minimum Humidity 35    
Precipitation  
Precipitation 0.00 in - - ()
Sea Level Pressure  
Sea Level Pressure 30.18 in    
Wind  
Wind Speed 3 mph ()    
Max Wind Speed 8 mph    
Max Gust Speed -    
T = Trace of Precipitation, MM = Missing Value Source: Averaged Metar Reports

Daily Weather History Graph

Daily Weather History Graph

Search for Another Location

Airport or City:

Trip Planner

Search our weather history database for the weather conditions in past years. The results will help you decide how hot, cold, wet, or windy it might be!

Date:

Astronomy

Aug. 18, 2013 Rise Set
Actual Time 6:02 AM EDT 7:58 PM EDT
Civil Twilight 5:30 AM EDT 8:30 PM EDT
Nautical Twilight 4:51 AM EDT 9:08 PM EDT
Astronomical Twilight 4:09 AM EDT 9:51 PM EDT
Moon 6:05 PM EDT (8/18) 3:04 AM EDT (8/18)
Length of Visible Light 14h 59m
Length of Day
13h 56m
Waxing Gibbous, 92% of the Moon is Illuminated
Aug 18
Waxing Gibbous
Aug 20
Full
Aug 28
Last Quarter
Sep 5
New
Sep 12
First Quarter

Hourly Weather History & Observations

Time (EDT) Temp. Heat Index Dew Point Humidity Pressure Visibility Wind Dir Wind Speed Gust Speed Precip Events Conditions
12:00 AM 51.4 °F - 51.1 °F 99% 30.25 in - ESE 2.3 mph - N/A   Unknown
1:00 AM 50.0 °F - 49.6 °F 99% 30.24 in - SSW 1.2 mph - N/A   Unknown
2:00 AM 49 °F - 49 °F 100% 30.24 in - WSW 2.3 mph - -  
2:00 AM 49.3 °F - 48.9 °F 99% 30.24 in - WSW 2.3 mph - N/A   Unknown
3:00 AM 48.9 °F - 48.6 °F 99% 30.23 in - South 1.2 mph - N/A   Unknown
4:00 AM 48.7 °F - 48.6 °F 99% 30.24 in - Calm Calm - N/A   Unknown
5:00 AM 48.7 °F - 48.6 °F 99% 30.24 in - North 1.2 mph - N/A   Unknown
6:00 AM 48.0 °F - 47.8 °F 99% 30.24 in - SSE 1.2 mph - N/A   Unknown
7:00 AM 52.2 °F - 52.2 °F 100% 30.23 in - SSW 1.2 mph - N/A   Unknown
8:00 AM 62 °F - 60 °F 89% 30.24 in - WSW 4.6 mph - -  
8:00 AM 62.1 °F - 59.5 °F 91% 30.24 in - WSW 4.6 mph - N/A   Unknown
9:00 AM 68.2 °F - 60.6 °F 77% 30.24 in - WSW 5.8 mph - N/A   Unknown
10:00 AM 72.0 °F - 61.5 °F 70% 30.24 in - WSW 6.9 mph - N/A   Unknown
11:00 AM 74.3 °F - 61.9 °F 65% 30.23 in - WSW 5.8 mph - N/A   Unknown
12:00 PM 76.1 °F - 60.3 °F 58% 30.21 in - SW 5.8 mph - N/A   Unknown
1:00 PM 78.3 °F - 59.4 °F 52% 30.19 in - WSW 8.1 mph - N/A   Unknown
2:00 PM 80 °F - 57 °F 35% 30.17 in - WSW 6.9 mph - -  
2:00 PM 79.5 °F - 57.4 °F 47% 30.17 in - WSW 6.9 mph - N/A   Unknown
3:00 PM 80.1 °F 81.0 °F 60.4 °F 51% 30.15 in - WSW 8.1 mph - N/A   Unknown
4:00 PM 81.0 °F 81.5 °F 59.5 °F 48% 30.13 in - West 5.8 mph - N/A   Unknown
5:00 PM 80.1 °F 80.5 °F 57.4 °F 46% 30.10 in - WSW 6.9 mph - N/A   Unknown
6:00 PM 79.2 °F - 59.2 °F 50% 30.09 in - WSW 5.8 mph - N/A   Unknown
7:00 PM 76.5 °F - 59.7 °F 56% 30.08 in - WSW 3.5 mph - N/A   Unknown
8:00 PM 70 °F - 61 °F 66% 30.07 in - SW 3.5 mph - -  
8:00 PM 69.6 °F - 61.0 °F 74% 30.07 in - SW 3.5 mph - N/A   Unknown
9:00 PM 59.9 °F - 57.2 °F 91% 30.06 in - WSW 2.3 mph - N/A   Unknown
10:00 PM 64.0 °F - 58.1 °F 81% 30.05 in - SW 4.6 mph - N/A   Unknown
11:00 PM 62.2 °F - 56.8 °F 82% 30.05 in - SW 3.5 mph - N/A   Unknown